Regional Weather Roundup
Issued by NWS Goodland, KS

Home | Current Version | Previous Version | Graphics & Text | Print | Product List | Glossary Off
Versions: 1 2 3 4 5 6 7 8 9 10 11 12 13 14 15 16 17 18 19 20 21 22 23 24 25 26 27 28 29 30 31 32 33 34 35 36 37 38 39 40 41 42 43 44 45 46 47 48 49 50

000
ASUS43 KGLD 032308
RWRGLD

GOODLAND FORECAST AREA HOURLY WEATHER ROUNDUP
NATIONAL WEATHER SERVICE GOODLAND KS
500 PM MDT WED JUN 03 2015

...OFFICIAL OBSERVATIONS...

CITY           SKY/WX    TMP DP  RH WIND       PRES   REMARKS
GOODLAND KS    PTSUNNY   77  61  57 E15       29.92F
HILL CITY KS   MOSUNNY   81  64  56 E9        29.86F
IMPERIAL NEB   CLOUDY    75  58  55 E10       29.94S
MCCOOK NEB     PTSUNNY   82  59  45 NE13      29.90S
AKRON CO       MOSUNNY   75  54  47 E18G28    29.95F
BURLINGTON CO  PTSUNNY   75  58  55 NE17      29.95F
LIMON CO       PTSUNNY   70  55  59 E21       30.00F
$$

...UNOFFICIAL OBSERVATIONS...

CITY           SKY/WX    TMP DP  RH WIND       PRES   REMARKS
COLBY KS       CLOUDY    79  64  61 E14       29.92S
GOVE KS          N/A     81  32  17 MISG        N/A
NORTON KS      PTSUNNY   81  54  39 E15       29.88F
SHARON SPRINGS   N/A     78  63  60 MISG        N/A
KIT CARSON CO    N/A     76  60  56 MISG        N/A
YUMA CO          N/A     75  57  54 MISG        N/A
$$



USA.gov is the U.S. government's official web portal to all federal, state and local government web resources and services.